Location: Borgo
(42.3939°N, 9.2791°E)
Time: 01:49:50
(UTC+00:00)

Lacrosse 5 - Pass Details

Date: 24 January 2021
Orbit: 715 x 724 km, 57.0° (Epoch: 07 March)

Event Time Altitude Azimuth Distance (km) Brightness Sun altitude
Rises 17:28:41 0° 312° (NW) 3,122 5.6 -11.6°
Reaches altitude 10° 17:31:04 10° 311° (NW) 2,199 4.9 -12.0°
Maximum altitude 17:36:06 73° 227° (SW) 750 2.1 -12.9°
Drops below altitude 10° 17:41:07 10° 144° (SE) 2,189 4.1 -13.8°
Sets 17:43:30 0° 142° (SE) 3,107 4.9 -14.2°
